FW1143 Weather Reports


Display with metric or nautical units.
time (UTC)temp
F
wind
direction
speed
MPH
gust
MPH
rain 1hr
in
rain 24hr
in
rain mn
in
humidity
%
barometer
mb
20260508120053 48 305 0.0 0.0 0.00 0.01 0.00 59 1002.4
20260508114553 47 314 0.0 0.0 0.00 0.01 0.00 62 1002.5
20260508113052 45 310 0.0 2.0 0.00 0.01 0.00 63 1002.4
20260508111600 44 312 0.0 0.0 0.00 0.01 0.00 67 1002.3
20260508110048 43 312 0.0 0.0 0.00 0.01 0.00 70 1002.3
20260508104547 41 314 0.0 0.0 0.00 0.01 0.00 74 1002.2
20260508103049 40 314 0.0 0.0 0.00 0.01 0.00 74 1002.1
20260508101546 40 314 0.0 0.0 0.00 0.01 0.00 75 1001.9
20260508100040 39 314 0.0 0.0 0.00 0.01 0.00 78 1001.6
20260508094542 39 314 0.0 0.0 0.00 0.01 0.00 78 1001.5
20260508093039 39 314 0.0 0.0 0.00 0.01 0.00 78 1001.4
20260508091536 38 314 0.0 0.0 0.00 0.01 0.00 78 1001.6
20260508090037 37 314 0.0 0.0 0.00 0.01 0.00 78 1001.5
20260508084532 38 314 0.0 0.0 0.00 0.01 0.00 76 1001.3
20260508083029 38 314 0.0 0.0 0.00 0.01 0.00 75 1001.4
20260508081528 38 314 0.0 0.0 0.00 0.01 0.00 75 1001.1
20260508080049 39 314 0.0 0.0 0.00 0.01 0.00 74 1000.9
20260508074525 39 314 0.0 0.0 0.00 0.01 0.00 74 1000.7
20260508073022 39 314 0.0 0.0 0.00 0.01 0.00 74 1000.4
20260508071522 39 314 0.0 0.0 0.00 0.01 0.00 74 1000.2
20260508070023 39 314 0.0 0.0 0.00 0.01 0.00 73 1000.1
20260508064536 39 314 0.0 0.0 0.00 0.01 0.00 73 1000.2
20260508063014 40 314 0.0 0.0 0.00 0.01 0.00 72 1000.2
20260508061518 41 314 0.0 0.0 0.00 0.01 0.00 71 1000.2
20260508060013 41 314 0.0 0.0 0.00 0.01 0.00 71 1000.1
20260508054519 41 314 0.0 0.0 0.00 0.01 0.00 71 1000.3
20260508053010 41 314 0.0 0.0 0.00 0.01 0.00 70 1000.4
20260508051507 41 314 0.0 0.0 0.00 0.01 0.00 71 1000.6
20260508050008 42 314 0.0 0.0 0.00 0.01 0.00 71 1000.8
20260508044501 43 314 0.0 0.0 0.00 0.01 0.00 68 1000.8
20260508043104 44 314 0.0 0.0 0.00 0.01 0.00 66 1000.9
20260508041555 45 314 0.0 0.0 0.00 0.01 0.00 61 1000.9
20260508040057 46 314 0.0 0.0 0.00 0.02 0.00 59 1000.9
20260508034550 45 314 0.0 0.0 0.00 0.02 0.00 62 1000.8
20260508033047 47 312 0.0 0.0 0.00 0.02 0.00 58 1000.8
20260508031517 47 311 0.0 0.0 0.00 0.02 0.00 57 1000.7
20260508030011 49 311 0.0 0.0 0.00 0.02 0.00 57 1000.7
20260508024539 49 311 0.0 0.0 0.00 0.02 0.00 54 1000.9
20260508023037 50 310 0.0 0.0 0.00 0.02 0.00 53 1000.9
20260508021533 50 311 0.0 0.0 0.00 0.02 0.00 52 1000.7
20260508020030 51 310 0.0 2.0 0.00 0.02 0.00 50 1000.9
20260508014528 51 310 0.0 1.0 0.00 0.02 0.00 50 1000.8
20260508013025 51 309 0.0 0.0 0.00 0.02 0.00 50 1000.5
20260508011520 52 310 0.0 0.0 0.00 0.02 0.00 50 1000.3
20260508010019 52 310 0.0 0.0 0.00 0.02 0.00 49 1000.1
20260508004517 53 310 0.0 0.0 0.00 0.02 0.00 48 999.8
20260508003012 53 310 0.0 0.0 0.00 0.02 0.00 47 999.6
20260508001541 54 310 1.0 4.0 0.00 0.02 0.00 46 999.6
20260508000037 55 321 0.0 4.0 0.00 0.03 0.00 44 999.4
20260507234544 56 308 1.0 7.0 0.00 0.03 0.00 42 999.2
20260507233030 56 344 2.0 5.0 0.00 0.03 0.00 42 999.2
20260507231526 57 318 2.0 5.0 0.00 0.03 0.00 41 999.2
20260507230026 57 307 3.0 8.0 0.00 0.09 0.03 39 999.1
20260507224521 59 336 2.0 10.0 0.00 0.09 0.03 37 998.7
20260507223021 59 315 4.0 8.0 0.00 0.09 0.03 38 998.6
20260507221529 59 348 2.0 9.0 0.00 0.09 0.03 38 998.5
20260507220022 60 319 4.0 9.0 0.00 0.10 0.03 36 998.3
20260507214517 60 325 3.0 11.0 0.00 0.10 0.03 37 998.2
20260507213023 61 304 2.0 10.0 0.00 0.10 0.03 34 998.1
20260507211517 61 325 2.0 8.0 0.00 0.10 0.03 38 998.1
20260507210024 60 345 4.0 9.0 0.00 0.12 0.03 36 997.9
20260507204548 61 337 3.0 10.0 0.00 0.12 0.03 36 998.1
20260507203044 62 334 2.0 8.0 0.00 0.12 0.03 34 998.1
20260507201539 62 319 3.0 10.0 0.00 0.12 0.03 35 997.9
20260507200050 61 312 4.0 12.0 0.00 0.15 0.03 35 998.0
20260507194548 62 325 3.0 13.0 0.00 0.15 0.03 35 998.0
20260507193038 62 334 4.0 11.0 0.00 0.15 0.03 37 998.1
20260507191536 62 332 0.0 10.0 0.00 0.15 0.03 38 998.2
20260507190044 62 360 2.0 7.0 0.00 0.15 0.03 41 998.4
20260507184542 62 345 4.0 13.0 0.00 0.15 0.03 37 998.6
20260507183032 62 327 4.0 10.0 0.00 0.15 0.03 40 998.9
20260507181529 61 306 3.0 10.0 0.00 0.15 0.03 37 998.8
20260507180129 60 317 3.0 11.0 0.00 0.15 0.03 35 999.2
20260507174532 61 293 3.0 10.0 0.00 0.15 0.03 34 999.0
20260507173040 60 344 2.0 9.0 0.00 0.15 0.03 36 999.0
20260507171520 60 302 2.0 12.0 0.00 0.15 0.03 37 998.8
20260507170021 60 346 3.0 11.0 0.00 0.15 0.03 38 999.1
20260507164523 60 319 2.0 10.0 0.00 0.15 0.03 41 999.2
20260507163018 60 343 3.0 10.0 0.01 0.15 0.03 44 999.6
20260507161517 59 308 3.0 11.0 0.01 0.15 0.03 46 999.9
20260507161514 59 302 3.0 11.0 0.01 0.15 0.03 46 999.9
20260507160012 58 329 3.0 12.0 0.01 0.15 0.03 50 1000.0
20260507154510 59 347 3.0 10.0 0.01 0.15 0.03 53 999.8
20260507153008 58 339 3.0 12.0 0.00 0.14 0.02 53 999.9
20260507151506 58 308 4.0 11.0 0.00 0.14 0.02 56 999.8
20260507150003 57 346 2.0 7.0 0.00 0.14 0.02 60 1000.0
20260507144504 56 341 3.0 9.0 0.00 0.14 0.02 63 1000.0
20260507143119 58 339 1.0 10.0 0.00 0.14 0.02 65 1000.1
20260507141604 56 285 3.0 9.0 0.00 0.14 0.02 67 1000.0
20260507140058 56 318 2.0 9.0 0.00 0.14 0.02 68 1000.0
20260507134555 55 310 1.0 7.0 0.00 0.14 0.02 70 1000.0
20260507133055 57 331 1.0 5.0 0.00 0.14 0.02 68 999.9
20260507131601 55 343 2.0 8.0 0.00 0.14 0.02 70 1000.2
20260507130054 54 311 2.0 8.0 0.00 0.14 0.02 72 1000.2
20260507124600 53 339 1.0 7.0 0.00 0.14 0.02 77 1000.3
20260507123048 52 346 2.0 9.0 0.00 0.14 0.02 79 1000.4
20260507121546 51 316 2.0 6.0 0.00 0.14 0.02 81 1000.5